Flag for U.S.A. Weather past 2 weeks in Cape Canaveral, Florida, U.S.A.

Now
59 °F

Passing clouds.


Feels Like: 57 °F
Forecast: 57 / 66 °F
Wind: 14 mph from North

Location: Cape Kennedy

Current Time: Feb 27, 2015 at 1:30:21 AM

Latest Report: Feb 26, 2015 at 11:58 PM


Visibility: 10 mi

Pressure: 30.05 "Hg

Humidity: 79%

Dew point: 53 °F

Location of Cape CanaveralLocation

Historic Weather in Cape Canaveral — Graph

°F

Cape Canaveral temperature yesterday

Maximum temperature yesterday: 73 °F (at 5:58 AM)
Minimum temperature yesterday: 59 °F (at 11:58 PM)
Average temperature yesterday: 67 °F

Past Weeks' High & Low Weather Summary

 TemperatureHumidityPressure
High82 °F (Feb 23, 2:58 PM)100% (Feb 23, 7:03 AM)30.43 "Hg (Feb 23, 7:03 AM)
Low36 °F (Feb 20, 6:58 AM)25% (Feb 19, 1:58 PM)29.70 "Hg (Feb 26, 3:58 AM)
Average60 °F71%30.10 "Hg
* Reported Feb 11 11:58 PM — Feb 26 11:58 PM, Cape Canaveral, Weather by CustomWeather, © 2015

Note: Actual official high and low records may vary slightly from our data, if they occured in-between our weather recording intervals... More about our weather records

Advertising

Cape Canaveral weather history for previous 24 hours

 ConditionsComfort  
Time TempWeatherWind HumidityBarometerVisibility
11:58 PM
Thu, Feb 26
59 °FPassing clouds.14 mph79%30.05 "Hg10 mi
10:58 PM60 °FPassing clouds.12 mph82%30.05 "Hg10 mi
9:58 PM60 °FClear.9 mph83%30.04 "Hg10 mi
7:58 PM60 °FPassing clouds.9 mph86%29.99 "Hg10 mi
6:58 PM61 °FPassing clouds.9 mph85%29.96 "Hg10 mi
5:58 PM61 °FSunny.7 mph85%29.94 "Hg10 mi
4:58 PM63 °FSunny.7 mph84%29.91 "Hg10 mi
3:59 PM64 °FPassing clouds.7 mph83%29.87 "Hg10 mi
3:58 PM64 °FPassing clouds.8 mph84%29.88 "Hg10 mi
2:58 PM72 °FSunny.8 mph68%29.86 "Hg10 mi
1:58 PM72 °FSunny.8 mph69%29.85 "Hg10 mi
12:58 PM73 °FSunny.9 mph67%29.84 "Hg10 mi
11:58 AM69 °FPassing clouds.8 mph72%29.86 "Hg10 mi
10:58 AM69 °FSunny.10 mph74%29.86 "Hg10 mi
9:58 AM67 °FSunny.14 mph79%29.85 "Hg10 mi
8:58 AM65 °FPartly sunny.10 mph88%29.83 "Hg10 mi
8:04 AM64 °FSunny.13 mph88%29.81 "Hg10 mi
7:58 AM64 °FPassing clouds.13 mph92%29.81 "Hg10 mi
6:59 AM68 °FRain. Passing clouds.16 mph83%29.76 "Hg2 mi
6:58 AM68 °FHaze.20 mph83%29.78 "Hg6 mi
5:58 AM73 °FClear.16 mph84%29.73 "Hg10 mi
4:58 AM73 °FClear.16 mph85%29.71 "Hg10 mi
3:58 AM72 °FClear.16 mph86%29.70 "Hg10 mi
2:58 AM72 °FClear.15 mph86%29.72 "Hg10 mi
1:58 AM71 °FClear.16 mph86%29.72 "Hg10 mi
Weather by CustomWeather, © 2015

See weather overviewHow to use our weather pages